This demonstration page uses our WeatherBlox Daily Observations layout. Learn more.

Left ArrowRight Arrow

Hourly Observations for February 26, 2018

Temp ( °F °C ) Dew Point ( °F °C ) Humidity (%) Winds ( mph kmh ) Pressure ( in mb ) Visibility ( mi km ) Precip ( " mm )
12:53 am 00:53 Cloudy with Light Rain 59 15 59 15 100 100 S 3 6 30.14 1021 8 13 0.02 0.51
1:53 am 01:53 Cloudy with Light Rain 58 14.4 58 14.4 100 100 WNW 3 6 30.14 1021 6 10 0.03 0.76
2:53 am 02:53 Cloudy with Rain 57 13.9 56 13.3 96 96 W 5 7 30.16 1021 4 6 0.14 3.56
3:53 am 03:53 Cloudy with Light Rain 56 13.3 56 13.3 100 100 Calm 30.16 1021 8 13 0.12 3.05
4:53 am 04:53 Cloudy with Light Rain 56 13.3 56 13.3 100 100 SW 3 6 30.14 1021 10 16 0.04 1.02
5:25 am 05:25 Cloudy with Light Rain 56 13.3 56 13.3 100 100 SSW 3 6 30.15 1021 10 16 0.01 0.25
5:53 am 05:53 Cloudy with Light Rain 56 13.3 56 13.3 100 100 Calm 30.14 1021 6 10 0.03 0.76
6:53 am 06:53 Cloudy with Rain 56 13.3 56 13.3 100 100 SW 3 6 30.15 1021 5 8 0.06 1.52
7:48 am 07:48 Cloudy with Light Rain 57 14 57 14 100 100 SE 3 6 30.15 1021 8 13 0.05 1.27
7:53 am 07:53 Cloudy with Light Rain 57 13.9 57 13.9 100 100 SE 8 13 30.13 1020 4 6 0.05 1.27
8:53 am 08:53 Cloudy 57 13.9 57 13.9 100 100 SW 6 9 30.16 1021 10 16 0.00 0.03
9:53 am 09:53 Mostly Cloudy 58 14.4 56 13.3 93 93 SSW 5 7 30.16 1022 10 16 0.00 0.03
10:53 am 10:53 Cloudy 59 15 56 13.3 90 90 SW 3 6 30.19 1022 10 16 0.00 0.00
11:53 am 11:53 Cloudy 62 16.7 57 13.9 84 84 SSW 6 9 30.18 1022 10 16 0.00 0.00
12:53 pm 12:53 Mostly Cloudy 64 17.8 54 12.2 70 70 WNW 10 17 30.17 1022 10 16 0.00 0.00
1:53 pm 13:53 Cloudy 64 17.8 54 12.2 70 70 W 12 19 30.16 1021 10 16 0.00 0.00
2:53 pm 14:53 Mostly Cloudy 65 18.3 54 12.2 68 68 NW 8 13 30.15 1021 10 16 0.00 0.00
3:53 pm 15:53 Mostly Cloudy 64 17.8 54 12.2 70 70 NW 12 19 30.16 1021 10 16 0.00 0.00
4:53 pm 16:53 Sunny 62 16.7 54 12.2 75 75 NNW 9 15 30.18 1022 10 16 0.00 0.00
5:53 pm 17:53 Sunny 60 15.6 51 10.6 72 72 NW 10 17 30.21 1023 10 16 0.00 0.00
6:53 pm 18:53 Clear 58 14.4 48 8.9 70 70 NNW 7 11 30.23 1024 10 16 0.00 0.00
7:53 pm 19:53 Clear 55 12.8 47 8.3 74 74 NNW 3 6 30.25 1024 10 16 0.00 0.00
8:53 pm 20:53 Clear 53 11.7 47 8.3 80 80 NNW 3 6 30.27 1025 10 16 0.00 0.00
9:53 pm 21:53 Clear 50 10 47 8.3 89 89 NW 3 6 30.29 1026 10 16 0.00 0.00
10:53 pm 22:53 Clear 49 9.4 46 7.8 90 90 NW 3 6 30.29 1026 10 16 0.00 0.00
11:53 pm 23:53 Clear 47 8.3 46 7.8 97 97 N 5 7 30.29 1026 10 16 0.00 0.00

Powered by Vaisala Xweather